{"data":{"norad_id":62974,"epoch":"2026-05-25T04:43:42.248928Z","epoch_age_seconds":55067,"freshness":"FRESH","line1":"1 62974U 25030D   26145.19701677 -.00000092  00000+0  69800-4 0  9992","line2":"2 62974  50.0043 318.0794 0001115  95.5870 264.5130 13.29324037 62807","mean_motion":13.29324037,"eccentricity":0.0001115,"inclination_deg":50.0043,"raan_deg":318.0794,"arg_perigee_deg":95.587,"mean_anomaly_deg":264.513,"bstar":6.98e-5,"rev_number":6280,"period_min":108.3257324715,"perigee_km":1148.4746715364,"apogee_km":1150.1532931054,"semimajor_km":7527.4509823209,"source":"CELESTRAK","updated_at":"2026-05-25T13:38:03.395998Z"}}